Location: Bethera
(33.2010°N, 79.7880°W)
Time: 06:34:32
(UTC-04:00)

Amateur Radio Satellites - All Passes

Search period start: 18 April 2014 06:04
Search period end: 19 April 2014 06:04
Location: Bethera, 33.2010°N, 79.7880°W

Satellite Date Start Highest point End Downlink Frequencies (MHz)
Time Altitude Azimuth
JAS-1B 18 Apr 06:08:53 06:13:58 35° 290° (WNW) 06:19:16 435.800 - 435.900 CW/SSB
STRAND 1 18 Apr 06:24:43 06:28:49 25° 69° (ENE) 06:32:55 ?
RS-15 18 Apr 06:41:28 06:52:02 45° 108° (ESE) 07:02:12 29.354 - 29.394 USB, Beacon 29.352 USB
AO-7 18 Apr 06:54:09 07:01:53 45° 294° (WNW) 07:09:38 29.400 - 29.500 MHz
JAS-2 18 Apr 07:40:44 07:45:30 30° 98° (E) 07:50:40 435.800 - 435.900 CW/SSB, 435.910 FM
Hamsat 18 Apr 07:51:07 07:55:23 56° 284° (WNW) 07:59:38 145.90 MHz
STRAND 1 18 Apr 08:03:18 08:07:49 31° 262° (W) 08:12:21 ?
MaSat-1 18 Apr 08:07:49 08:10:51 54° 68° (ENE) 08:14:30 437.345 MHz
SO-67 18 Apr 08:41:10 08:44:39 72° 283° (WNW) 08:48:08 435.3500 MHz FM
RS-15 18 Apr 08:53:27 09:04:13 47° 307° (NW) 09:14:42 29.354 - 29.394 USB, Beacon 29.352 USB
AO-40 18 Apr 08:58:35 10:21:45 24° 233° (SW) 13:15:00 Beacon 2401.320
PANSAT 18 Apr 09:01:36 09:04:19 18° 161° (SSE) 09:07:02 not established
HO-68 18 Apr 09:11:18 09:15:43 17° 94° (E) 09:20:06 435.675 MHz FM
JAS-2 18 Apr 09:25:52 09:30:30 30° 289° (WNW) 09:35:31 435.800 - 435.900 CW/SSB, 435.910 FM
Oscar 10/S400 18 Apr 09:55:09 10:49:37 11° 109° (ESE) 11:34:39 145.825 - 145.975 CW/USB, Beacon 145.810 USB
Sapphire 18 Apr 10:13:42 10:18:11 26° 56° (NE) 10:22:38 437.095 MHz 1200 baud AX-25 AFSK
PANSAT 18 Apr 10:40:33 10:44:07 36° 173° (S) 10:47:42 not established
Saudisat 1A 18 Apr 10:41:22 10:44:07 16° 109° (ESE) 10:46:51 436.775 MHz
FUNcube-1 18 Apr 10:45:47 10:47:37 12° 94° (E) 10:49:28 145.950 - 145.970 MHz USB
HO-68 18 Apr 10:56:44 11:03:53 71° 288° (WNW) 11:11:00 435.675 MHz FM
Oscar 11 18 Apr 10:57:47 11:02:08 67° 101° (E) 11:06:27 145.825 FM, Beacon 2401.500 USB
PCSat 18 Apr 10:58:05 11:03:30 69° 63° (ENE) 11:08:52 145.825 MHz
RS-15 18 Apr 11:15:40 11:20:21 13° 336° (NNW) 11:25:01 29.354 - 29.394 USB, Beacon 29.352 USB
KITSAT 1 18 Apr 11:42:45 11:48:52 23° 47° (NE) 11:54:56 435.175 FM
Sapphire 18 Apr 11:56:43 12:01:38 36° 251° (WSW) 12:06:31 437.095 MHz 1200 baud AX-25 AFSK
Saudisat 1A 18 Apr 12:19:09 12:23:21 40° 303° (WNW) 12:27:35 436.775 MHz
FUNcube-1 18 Apr 12:20:09 12:24:10 42° 286° (WNW) 12:28:17 145.950 - 145.970 MHz USB
PANSAT 18 Apr 12:20:28 12:24:04 38° 186° (S) 12:27:40 not established
PCSat 18 Apr 12:44:16 12:46:14 12° 257° (WSW) 12:48:12 145.825 MHz
HO-68 18 Apr 12:48:56 12:50:18 11° 304° (NW) 12:51:41 435.675 MHz FM
Oscar 19 18 Apr 13:04:59 13:08:06 16° 66° (ENE) 13:11:13 437.125 CW, 437.150 USB
Oscar 16 18 Apr 13:12:16 13:16:03 21° 68° (ENE) 13:19:50 437.025 USB, Beacon 2401.1428
KITSAT 1 18 Apr 13:36:56 13:45:01 76° 246° (WSW) 13:53:02 435.175 FM
RS-15 18 Apr 13:38:07 13:40:20 11° 16° (NNE) 13:42:34 29.354 - 29.394 USB, Beacon 29.352 USB
Uribyol 2 18 Apr 13:45:03 13:49:01 23° 68° (ENE) 13:52:59 436.500 FM
PANSAT 18 Apr 14:01:00 14:03:54 20° 198° (SSW) 14:06:47 not established
Gurwin Techsat 1B 18 Apr 14:12:52 14:14:29 11° 63° (ENE) 14:16:07 435.225 FM
AO-27 18 Apr 14:23:21 14:28:24 54° 73° (ENE) 14:33:27 436.795 MHz FM
ITAMSAT 1 18 Apr 14:34:16 14:39:25 69° 75° (ENE) 14:44:34 435.822 SSB
Oscar 19 18 Apr 14:42:02 14:46:59 49° 260° (W) 14:51:59 437.125 CW, 437.150 USB
Oscar 16 18 Apr 14:50:23 14:55:06 37° 262° (W) 14:59:52 437.025 USB, Beacon 2401.1428
AO-Echo 18 Apr 14:53:00 14:58:17 85° 77° (ENE) 15:03:29 ?
ISS 18 Apr 14:58:56 15:01:36 22° 129° (SE) 15:04:16 145.800 FM
TMSAT-1 18 Apr 14:58:58 15:03:07 24° 68° (ENE) 15:07:17 436.925 FM
JAS-1B 18 Apr 14:59:55 15:05:13 20° 65° (ENE) 15:10:00 435.800 - 435.900 CW/SSB
Uosat F 18 Apr 15:14:59 15:16:12 11° 63° (ENE) 15:17:25 435.120 FM
Uribyol 2 18 Apr 15:23:34 15:28:15 35° 262° (W) 15:32:56 436.500 FM
KITSAT 1 18 Apr 15:38:00 15:39:05 10° 261° (W) 15:40:10 435.175 FM
RS-15 18 Apr 15:47:38 15:57:28 36° 48° (NE) 16:07:27 29.354 - 29.394 USB, Beacon 29.352 USB
Gurwin Techsat 1B 18 Apr 15:48:27 15:53:45 76° 258° (WSW) 15:59:04 435.225 FM
AO-7 18 Apr 15:56:29 16:03:37 34° 63° (ENE) 16:10:45 29.400 - 29.500 MHz
OPAL 18 Apr 16:02:15 16:07:29 77° 104° (ESE) 16:12:41 ?
AO-27 18 Apr 16:05:30 16:08:10 14° 267° (W) 16:10:51 436.795 MHz FM
ITAMSAT 1 18 Apr 16:18:14 16:19:18 11° 268° (W) 16:20:21 435.822 SSB
SO-50 18 Apr 16:21:40 16:26:07 72° 299° (WNW) 16:30:37 436.795 FM
ISS 18 Apr 16:35:20 16:38:14 27° 323° (NW) 16:41:09 145.800 FM
TMSAT-1 18 Apr 16:38:02 16:42:48 34° 262° (W) 16:47:36 436.925 FM
JAS-1B 18 Apr 16:46:44 16:55:21 73° 257° (WSW) 17:02:33 435.800 - 435.900 CW/SSB
Uosat F 18 Apr 16:49:18 16:54:19 73° 258° (WSW) 16:59:21 435.120 FM
UOSAT-12 18 Apr 17:12:24 17:15:16 17° 108° (ESE) 17:18:10 437.025 FM, 437.400 FM
OPAL 18 Apr 17:44:01 17:45:40 11° 299° (WNW) 17:47:18 ?
AO-7 18 Apr 17:48:13 17:56:04 47° 258° (WSW) 18:03:59 29.400 - 29.500 MHz
RS-15 18 Apr 17:59:33 18:10:14 60° 248° (WSW) 18:21:18 29.354 - 29.394 USB, Beacon 29.352 USB
Hamsat 18 Apr 18:40:18 18:44:24 58° 76° (ENE) 18:48:33 145.90 MHz
STRAND 1 18 Apr 18:41:47 18:43:04 11° 92° (E) 18:44:20 ?
UOSAT-12 18 Apr 18:50:46 18:55:02 40° 303° (WNW) 18:59:24 437.025 FM, 437.400 FM
SO-67 18 Apr 19:11:44 19:14:12 18° 72° (ENE) 19:16:41 435.3500 MHz FM
JAS-2 18 Apr 19:32:56 19:38:59 68° 75° (ENE) 19:44:26 435.800 - 435.900 CW/SSB, 435.910 FM
STRAND 1 18 Apr 20:17:34 20:22:37 66° 285° (WNW) 20:27:39 ?
SO-67 18 Apr 20:44:46 20:47:14 18° 265° (W) 20:49:42 435.3500 MHz FM
Saudisat 1A 18 Apr 20:49:49 20:54:04 45° 58° (ENE) 20:58:15 436.775 MHz
HO-68 18 Apr 21:20:16 21:27:11 58° 70° (ENE) 21:34:09 435.675 MHz FM
JAS-2 18 Apr 21:21:58 21:24:18 12° 266° (W) 21:26:32 435.800 - 435.900 CW/SSB, 435.910 FM
Oscar 11 18 Apr 21:49:08 21:52:52 30° 72° (ENE) 21:56:38 145.825 FM, Beacon 2401.500 USB
MaSat-1 18 Apr 22:07:35 22:10:48 85° 290° (WNW) 22:13:33 437.345 MHz
Saudisat 1A 18 Apr 22:31:05 22:33:13 13° 252° (WSW) 22:35:20 436.775 MHz
ISS 18 Apr 23:07:03 23:10:18 45° 41° (NE) 23:13:31 145.800 FM
HO-68 18 Apr 23:09:56 23:15:10 22° 265° (W) 23:20:27 435.675 MHz FM
FUNcube-1 18 Apr 23:12:23 23:16:38 88° 77° (ENE) 23:20:50 145.950 - 145.970 MHz USB
Oscar 11 18 Apr 23:26:08 23:29:04 18° 265° (W) 23:32:01 145.825 FM, Beacon 2401.500 USB
PCSat 18 Apr 23:54:47 23:57:57 16° 104° (ESE) 00:01:08 145.825 MHz
ISS 19 Apr 00:45:12 00:46:43 13° 234° (SW) 00:48:13 145.800 FM
Sapphire 19 Apr 00:50:38 00:55:53 54° 111° (ESE) 01:01:09 437.095 MHz 1200 baud AX-25 AFSK
SO-50 19 Apr 00:57:30 01:01:41 32° 56° (NE) 01:05:55 436.795 FM
PCSat 19 Apr 01:35:35 01:40:51 54° 298° (WNW) 01:46:09 145.825 MHz
Uribyol 2 19 Apr 02:04:18 02:05:20 11° 92° (E) 02:06:22 436.500 FM
KITSAT 1 19 Apr 02:07:01 02:13:10 24° 104° (ESE) 02:19:19 435.175 FM
Oscar 10/S400 19 Apr 02:24:48 02:42:03 33° 138° (SE) 03:20:15 145.825 - 145.975 CW/USB, Beacon 145.810 USB
Sapphire 19 Apr 02:35:54 02:39:36 19° 307° (NW) 02:43:20 437.095 MHz 1200 baud AX-25 AFSK
SO-50 19 Apr 02:38:24 02:42:04 23° 249° (WSW) 02:45:46 436.795 FM
AO-27 19 Apr 02:41:12 02:45:35 28° 97° (E) 02:49:57 436.795 MHz FM
ITAMSAT 1 19 Apr 02:51:49 02:56:31 35° 98° (E) 03:01:12 435.822 SSB
Oscar 19 19 Apr 02:57:43 03:02:57 83° 103° (ESE) 03:08:08 437.125 CW, 437.150 USB
AO-Echo 19 Apr 03:05:16 03:09:39 36° 98° (E) 03:13:56 ?
Oscar 16 19 Apr 03:05:54 03:11:06 76° 285° (WNW) 03:16:17 437.025 USB, Beacon 2401.1428
OPAL 19 Apr 03:13:08 03:18:08 84° 74° (ENE) 03:23:13 ?
TMSAT-1 19 Apr 03:20:23 03:22:39 13° 92° (E) 03:24:55 436.925 FM
UOSAT-12 19 Apr 03:24:04 03:28:41 52° 59° (ENE) 03:33:14 437.025 FM, 437.400 FM
Uribyol 2 19 Apr 03:40:03 03:45:12 69° 285° (WNW) 03:50:21 436.500 FM
KITSAT 1 19 Apr 03:59:55 04:07:54 62° 300° (WNW) 04:15:57 435.175 FM
AO-7 19 Apr 04:06:21 04:08:32 11° 91° (E) 04:10:43 29.400 - 29.500 MHz
Gurwin Techsat 1B 19 Apr 04:09:04 04:14:20 63° 101° (E) 04:19:34 435.225 FM
AO-27 19 Apr 04:20:36 04:24:59 29° 291° (WNW) 04:29:21 436.795 MHz FM
ITAMSAT 1 19 Apr 04:31:47 04:35:46 23° 292° (WNW) 04:39:44 435.822 SSB
JAS-1B 19 Apr 04:37:10 04:42:20 35° 99° (E) 04:47:47 435.800 - 435.900 CW/SSB
AO-Echo 19 Apr 04:44:54 04:48:07 18° 293° (WNW) 04:51:18 ?
TMSAT-1 19 Apr 04:57:41 05:02:54 61° 286° (WNW) 05:08:06 436.925 FM
Uosat F 19 Apr 05:01:27 05:06:18 49° 100° (E) 05:11:06 435.120 FM
UOSAT-12 19 Apr 05:06:04 05:08:20 14° 253° (WSW) 05:10:36 437.025 FM, 437.400 FM
Gurwin Techsat 1B 19 Apr 05:51:09 05:53:43 14° 296° (WNW) 05:56:16 435.225 FM
STRAND 1 19 Apr 05:54:08 05:55:46 12° 64° (ENE) 05:57:24 ?
